This is the latest recevied weather packets stored in our database for station/object KQ7A. If no packets are shown the sender has not sent any weather packets the latest 10 day(s).
| Time | Temp. | Humidity | Pressure | Rain* | Wind** | Luminosity | Snow |
|---|---|---|---|---|---|---|---|
| 1788207834 | 28.33° C | 24% | 1015.5 hPa | 0 mm | - | 669 W/m² | - |
| 1788207528 | 28.33° C | 24% | 1015.5 hPa | 0 mm | - | 671 W/m² | - |
| 1788207227 | 27.78° C | 26% | 1015.3 hPa | 0 mm | - | 684 W/m² | - |
| 1788206923 | 28.33° C | 25% | 1015.5 hPa | 0 mm | - | 689 W/m² | - |
| 1788206618 | 28.89° C | 25% | 1015.4 hPa | 0 mm | - | 703 W/m² | - |
| 1788206313 | 28.33° C | 21% | 1015.8 hPa | 0 mm | - | 718 W/m² | - |
| 1788206009 | 28.33° C | 22% | 1015.9 hPa | 0 mm | - | 725 W/m² | - |
| 1788205704 | 28.33° C | 23% | 1015.6 hPa | 0 mm | - | 730 W/m² | - |
| 1788205399 | 27.22° C | 24% | 1016 hPa | 0 mm | - | 725 W/m² | - |
| 1788205098 | 27.78° C | 25% | 1016.2 hPa | 0 mm | - | 724 W/m² | - |
| 1788204794 | 27.78° C | 25% | 1016.2 hPa | 0 mm | - | 716 W/m² | - |
| 1788204489 | 27.22° C | 27% | 1016.2 hPa | 0 mm | - | 739 W/m² | - |
| 1788204184 | 27.22° C | 29% | 1016.3 hPa | 0 mm | - | 745 W/m² | - |
| 1788203880 | 26.67° C | 28% | 1016.6 hPa | 0 mm | - | 747 W/m² | - |
| 1788203575 | 26.67° C | 28% | 1016.4 hPa | 0 mm | - | 741 W/m² | - |
| 1788203271 | 26.67° C | 28% | 1016.6 hPa | 0 mm | - | 759 W/m² | - |
| 1788202965 | 26.67° C | 28% | 1016.7 hPa | 0 mm | - | 777 W/m² | - |
| 1788202659 | 26.67° C | 31% | 1016.4 hPa | 0 mm | - | 788 W/m² | - |
| 1788202355 | 26.67° C | 30% | 1016.4 hPa | 0 mm | - | 799 W/m² | - |
| 1788202054 | 26.67° C | 29% | 1016.8 hPa | 0 mm | - | 818 W/m² | - |
| 1788201750 | 26.11° C | 34% | 1016.8 hPa | 0 mm | - | 832 W/m² | - |
| 1788201450 | 25.56° C | 32% | 1017 hPa | 0 mm | - | 846 W/m² | - |
| 1788201144 | 25.56° C | 33% | 1017 hPa | 0 mm | - | 851 W/m² | - |
| 1788200843 | 25° C | 33% | 1016.7 hPa | 0 mm | - | 819 W/m² | - |
| 1788200539 | 25° C | 33% | 1016.9 hPa | 0 mm | - | 825 W/m² | - |
* Rain latest hour (hover to see other rain measurements)
** Current wind speed in m/s (hover to see current wind gust speed)